This demonstration page uses our WeatherBlox Daily Observations layout. Learn more.

Left ArrowRight Arrow

Hourly Observations for April 27, 2022

Temp ( °F °C ) Dew Point ( °F °C ) Humidity (%) Winds ( mph kmh ) Pressure ( in mb ) Visibility ( mi km ) Precip ( " mm )
1:56 am 01:56 Clear 56 13.4 28 -2.2 34 34 S 13 20 30.14 1021 10 16 0.00 0.00
4:56 am 04:56 Clear 49 9.6 31 -0.6 49 49 VRB 6 9 30.10 1019 10 16 0.00 0.00
5:56 am 05:56 Mostly Cloudy 51 10.3 31 -0.5 47 47 SE 12 19 30.08 1019 10 16 0.00 0.00
6:56 am 06:56 Cloudy 52 11.1 31 -0.7 44 44 SSE 13 20 30.08 1019 10 16 0.00 0.00
7:56 am 07:56 Mostly Sunny 56 13.4 31 -0.6 38 38 SSE 14 22 30.07 1018 9 14 0.00 0.00
8:56 am 08:56 Sunny 60 15.4 32 0 35 35 S 14 22 30.06 1018 6 10 0.00 0.00
9:56 am 09:56 Mostly Sunny 63 17.2 33 0.8 33 33 S 12 19 30.04 1017 10 16 0.00 0.00
10:56 am 10:56 Sunny 68 20 35 1.4 29 29 SSW 12 19 30.01 1016 8 13 0.00 0.00
11:56 am 11:56 Sunny 73 22.6 37 2.6 27 27 S 14 22 29.99 1016 10 16 0.00 0.00
12:56 pm 12:56 Sunny 77 24.9 38 3.5 25 25 SSW 20 31 29.96 1015 10 16 0.00 0.00
1:52 pm 13:52 undefined 79 26 39 4 24 24 S 13 20 29.94 1014 10 16 0.00 0.00
1:56 pm 13:56 undefined 78 25.5 40 4.6 26 26 SSW 9 15 29.93 1014 10 16 0.00 0.00
2:10 pm 14:10 undefined 79 26 41 5 26 26 S 15 24 29.93 1014 9 14 0.00 0.00
2:23 pm 14:23 undefined 79 26 41 5 26 26 SW 16 26 29.92 1013 7 11 0.00 0.00
2:56 pm 14:56 Mostly Cloudy 80 26.7 42 5.6 26 26 S 10 17 29.90 1012 10 16 0.00 0.00
3:56 pm 15:56 Sunny 82 27.9 44 6.6 26 26 SSW 18 30 29.88 1012 8 13 0.00 0.00
4:56 pm 16:56 Mostly Sunny 83 28.5 44 6.5 25 25 SSW 18 30 29.85 1011 7 11 0.00 0.00
5:56 pm 17:56 Mostly Cloudy 82 27.8 45 7.1 27 27 S 17 28 29.85 1011 9 14 0.00 0.00
6:56 pm 18:56 Mostly Cloudy 80 26.6 43 6.1 27 27 S 15 24 29.86 1011 10 16 0.00 0.00
7:56 pm 19:56 Mostly Cloudy 78 25.6 47 8.6 34 34 S 12 19 29.86 1011 10 16 0.00 0.00
8:56 pm 20:56 Partly Cloudy 75 23.8 50 10.1 42 42 S 12 19 29.88 1012 10 16 0.00 0.00
10:56 pm 22:56 Mostly Cloudy 68 20.1 48 8.7 48 48 SSE 12 19 29.92 1013 10 16 0.00 0.00
11:56 pm 23:56 Mostly Cloudy 66 19 46 8 49 49 S 13 20 29.90 1012 10 16 0.00 0.00

Powered by AerisWeather